Погода в Бленхейме

Новая Зеландия     41°30′48″S   173°57′38″E
темп.,
°C
ветер,
м/с
пор.,
м/с
влажн.,
%
обл.,
%
осадки,
мм/ч
давл.,
гПа
погр.,
м
12 августа, пт
пт1200:00+3зюз33815 0.1 102586
03:00+2зюз33784 0.0 102474
06:00+1зюз33772 0.0 102569
09:00+4з33682 0.0 1025130
12:00+8всв01563 0.0 1024677
15:00+8всв21611 0.0 1022584
18:00+5в11750 0.0 1023146
21:00+3юз22831 0.0 102444
13 августа, сб
сб1300:00+2зюз22853 0.0 102461
03:00+2зюз22855 0.0 102562
06:00+2з228460 0.0 102568
09:00+4зюз22745 0.0 1027133
12:00+9сз11613 0.0 1027590
15:00+9всв32651 0.0 1025431
18:00+6всв22750 0.0 1026185
21:00+4з33854 0.0 102860
14 августа, вс
вс1400:00+3з44893 0.0 102888
03:00+2з44883 0.0 102781
06:00+2з45883 0.0 102788
09:00+5зсз35800 0.0 1027153
12:00+12сз35600 0.0 1024552
15:00+13сз46570 0.0 1021547
18:00+7сз35810 0.0 102285
21:00+5з34872 0.0 102567
15 августа, пн
пн1500:00+4з34856 0.0 102571
03:00+3з348319 0.0 102677
06:00+3з4484100 0.0 102681
09:00+5з3479100 0.0 1026141
12:00+11сз4867100 0.0 1024594
15:00+12сз4872100 0.0 1023546
18:00+9ссз4682100 0.0 1023133
21:00+8зсз3589100 0.0 1024126
16 августа, вт
вт1600:00+8зсз3492100 0.3 1023123
03:00+9зсз2494100 0.0 102297
06:00+10ссз2595100 1.5 1020133
09:00+11с3994100 1.9 1019338
12:00+12ссз21096100 8.9 1018494
15:00+13ссз71692100 9.2 10161051
18:00+12ссв3598100 20.3 1016205
21:00+13сз41395100 12.3 1017683